This is the latest recevied weather packets stored in our database for station/object WP3OF-2. If no packets are shown the sender has not sent any weather packets the latest 1 day(s).
| Time | Temp. | Humidity | Pressure | Rain* | Wind** | Luminosity | Snow |
|---|---|---|---|---|---|---|---|
| 1778048539 | 18.89° C | 92% | 1026.3 hPa | 0 mm | - | 0 W/m² | - |
| 1778048235 | 18.89° C | 91% | 1026.3 hPa | 0 mm | - | 0 W/m² | - |
| 1778047932 | 18.89° C | 92% | 1026.3 hPa | 0 mm | - | 0 W/m² | - |
| 1778046108 | 18.89° C | 92% | 1026.7 hPa | 0 mm | - | 0 W/m² | - |
| 1778045806 | 18.89° C | 93% | 1026.7 hPa | 0 mm | - | 0 W/m² | - |
| 1778045202 | 18.89° C | 94% | 1026.7 hPa | 0 mm | - | 0 W/m² | - |
| 1778044900 | 18.89° C | 94% | 1027.1 hPa | 0 mm | - | 0 W/m² | - |
| 1778044597 | 18.89° C | 95% | 1027.1 hPa | 0 mm | - | 0 W/m² | - |
| 1778043986 | 18.89° C | 97% | 1027.1 hPa | 0 mm | - | 0 W/m² | - |
| 1778043682 | 18.89° C | 96% | 1027.1 hPa | 0 mm | - | 0 W/m² | - |
| 1778043076 | 19.44° C | 94% | 1027.4 hPa | 0 mm | - | 0 W/m² | - |
| 1778042774 | 18.89° C | 95% | 1027.1 hPa | 0 mm | - | 0 W/m² | - |
| 1778042470 | 19.44° C | 95% | 1027.1 hPa | 0 mm | - | 0 W/m² | - |
| 1778042168 | 19.44° C | 93% | 1027.1 hPa | 0 mm | - | 0 W/m² | - |
| 1778041866 | 19.44° C | 91% | 1027.4 hPa | 0 mm | - | 0 W/m² | - |
| 1778040961 | 18.89° C | 95% | 1027.4 hPa | 0 mm | - | 0 W/m² | - |
| 1778040657 | 18.89° C | 97% | 1027.4 hPa | 0 mm | - | 0 W/m² | - |
| 1778040355 | 18.89° C | 98% | 1027.4 hPa | 0 mm | - | 0 W/m² | - |
| 1778040051 | 18.89° C | 98% | 1027.4 hPa | 0 mm | - | 0 W/m² | - |
| 1778039748 | 18.89° C | 98% | 1027.4 hPa | 0 mm | - | 0 W/m² | - |
| 1778039142 | 18.89° C | 97% | 1027.9 hPa | 0 mm | - | 0 W/m² | - |
| 1778038839 | 19.44° C | 97% | 1027.9 hPa | 0 mm | - | 0 W/m² | - |
| 1778038536 | 18.89° C | 97% | 1027.9 hPa | 0 mm | - | 0 W/m² | - |
| 1778038233 | 18.89° C | 97% | 1027.9 hPa | 0 mm | - | 0 W/m² | - |
| 1778037627 | 19.44° C | 96% | 1027.9 hPa | 0 mm | - | 0 W/m² | - |
* Rain latest hour (hover to see other rain measurements)
** Current wind speed in m/s (hover to see current wind gust speed)